Location: ?????
(32.7281°N, 34.9563°E)
Time: 02:17:34
(UTC+00:00)

Aureole 3 - Pass Details

Date: 29 October 2020
Orbit: 382 x 1232 km, 82.5° (Epoch: 25 November)

Event Time Altitude Azimuth Distance (km) Brightness Sun altitude
Rises 15:44:49 0° 200° (SSW) 2,519 7.1 -11.7°
Reaches altitude 10° 15:47:07 10° 208° (SSW) 1,553 6.2 -12.2°
Maximum altitude 15:50:11 36° 278° (W) 659 4.4 -12.8°
Drops below altitude 10° 15:52:59 10° 347° (NNW) 1,419 5.5 -13.4°
Sets 15:55:00 0° 357° (N) 2,264 6.4 -13.8°
